Home > Time Zones > World Clock > Weather > Peru > Lima > Past weeks

Flag for Peru Weather past 2 weeks in Lima, Lima, Peru

Now
61 °F

Mostly cloudy.


Feels Like: 61 °F
Forecast: 62 / 71 °F
Wind: 15 mph from Southeast

Location: Lima-Callao / Aerop. Internacional Jorgechavez

Current Time: Jul 22, 2014 at 8:52:11 PM

Latest Report: Jul 22, 2014 at 8:00 PM


Visibility: N/A

Pressure: 29.95 "Hg

Humidity: 88%

Dew point: 57 °F

Location of LimaLocation

Historic Weather in Lima — Graph

°F

Lima temperature yesterday

Maximum temperature yesterday: 68 °F (at 2:00 PM)
Minimum temperature yesterday: 61 °F (at 12:00 AM)
Average temperature yesterday: 63 °F

Past Weeks' High & Low Weather Summary

 TemperatureHumidityPressure
High68 °F (Jul 21, 2:00 PM)94% (Jul 8, 7:00 AM)30.04 "Hg (Jul 8, 7:00 AM)
Low59 °F (Jul 22, 4:00 AM)68% (Jul 15, 7:00 PM)29.86 "Hg (Jul 10, 4:00 PM)
Average63 °F84%29.96 "Hg
* Reported Jul 7 8:00 PM — Jul 22 8:00 PM, Lima, Weather by CustomWeather, © 2014

Note: Actual official high and low records may vary slightly from our data, if they occured in-between our weather recording intervals... More about our weather records

Advertising

Lima weather history for previous 24 hours

 ConditionsComfort  
Time TempWeatherWind HumidityBarometerVisibility
8:00 PM
Jul 22
61 °FMostly cloudy.15 mph88%29.95 "HgN/A
7:00 PM61 °FPassing clouds.13 mph88%29.95 "Hg5 mi
12:00 PM63 °FMore clouds than sun.10 mph83%29.98 "Hg5 mi
11:00 AM63 °FMore clouds than sun.8 mph83%30.01 "HgN/A
10:00 AM63 °FMore clouds than sun.6 mph83%30.01 "HgN/A
9:00 AM63 °FMore clouds than sun.3 mph83%30.01 "HgN/A
8:00 AM61 °FLow clouds.6 mph88%29.98 "HgN/A
7:00 AM61 °FOvercast.7 mph88%29.95 "HgN/A
6:00 AM61 °FOvercast.6 mph88%29.92 "HgN/A
5:00 AM61 °FOvercast.8 mph88%29.92 "HgN/A
4:00 AM59 °FDrizzle. Mostly cloudy.12 mph94%29.92 "HgN/A
3:00 AM61 °FDrizzle. Mostly cloudy.12 mph88%29.92 "HgN/A
2:00 AM61 °FMostly cloudy.9 mph88%29.92 "HgN/A
1:00 AM61 °FMostly cloudy.8 mph88%29.92 "HgN/A
12:00 AM61 °FMostly cloudy.9 mph88%29.95 "HgN/A
11:00 PM
Jul 21
61 °FLow clouds.10 mph88%29.95 "HgN/A
10:00 PM61 °FLow clouds.10 mph88%29.95 "HgN/A
9:00 PM63 °FOvercast.13 mph83%29.95 "HgN/A
8:00 PM63 °FOvercast.12 mph83%29.92 "HgN/A
Weather by CustomWeather, © 2014

See weather overviewHow to use our weather pages